Time,TemperatureF,DewpointF,PressureIn,WindDirection,WindDirectionDegrees,WindSpeedMPH,WindSpeedGustMPH,Humidity,HourlyPrecipIn,Conditions,Clouds,dailyrainin,SoftwareType,DateUTC
2014-01-23 00:10:00,47.7,40.0,30.16,NW,323,0.0,-999.0,76,-99.99,,,0.00,weatherlink.com 1.10,2014-01-23 05:10:00,
2014-01-23 00:25:00,47.0,41.0,30.16,NW,323,0.0,-999.0,81,-99.99,,,0.00,weatherlink.com 1.10,2014-01-23 05:25:00,
2014-01-23 00:40:00,47.2,41.0,30.16,NW,315,0.0,-999.0,80,-99.99,,,0.00,weatherlink.com 1.10,2014-01-23 05:40:00,
2014-01-23 00:55:00,47.0,40.0,30.16,WNW,300,0.0,-999.0,77,-99.99,,,0.00,weatherlink.com 1.10,2014-01-23 05:55:00,
2014-01-23 01:10:00,47.0,41.0,30.17,WNW,300,0.0,-999.0,81,-99.99,,,0.00,weatherlink.com 1.10,2014-01-23 06:10:00,
2014-01-23 01:25:00,47.0,42.0,30.17,WNW,300,2.0,-999.0,82,-99.99,,,0.00,weatherlink.com 1.10,2014-01-23 06:25:00,
2014-01-23 01:40:00,47.4,40.0,30.18,WNW,293,0.0,-999.0,75,-99.99,,,0.00,weatherlink.com 1.10,2014-01-23 06:40:00,
2014-01-23 01:55:00,47.2,39.0,30.18,WNW,299,0.0,-999.0,74,-99.99,,,0.00,weatherlink.com 1.10,2014-01-23 06:55:00,
2014-01-23 02:10:00,46.0,40.0,30.18,WNW,299,0.0,-999.0,80,-99.99,,,0.00,weatherlink.com 1.10,2014-01-23 07:10:00,
2014-01-23 02:25:00,45.9,41.0,30.18,WNW,299,0.0,-999.0,82,-99.99,,,0.00,weatherlink.com 1.10,2014-01-23 07:25:00,
2014-01-23 02:40:00,45.9,40.0,30.18,WNW,299,0.0,-999.0,79,-99.99,,,0.00,weatherlink.com 1.10,2014-01-23 07:40:00,
2014-01-23 02:55:00,45.6,39.0,30.18,WNW,299,1.0,-999.0,77,-99.99,,,0.00,weatherlink.com 1.10,2014-01-23 07:55:00,
2014-01-23 03:10:00,45.6,39.0,30.18,WNW,303,0.0,-999.0,78,-99.99,,,0.00,weatherlink.com 1.10,2014-01-23 08:10:00,
2014-01-23 03:25:00,45.2,38.0,30.18,WNW,303,0.0,-999.0,77,-99.99,,,0.00,weatherlink.com 1.10,2014-01-23 08:25:00,
2014-01-23 03:40:00,45.0,37.0,30.18,NW,319,3.0,-999.0,73,-99.99,,,0.00,weatherlink.com 1.10,2014-01-23 08:40:00,
2014-01-23 03:55:00,44.9,36.0,30.18,NW,317,1.0,-999.0,71,-99.99,,,0.00,weatherlink.com 1.10,2014-01-23 08:55:00,
2014-01-23 04:10:00,44.8,36.0,30.19,NW,325,3.0,-999.0,72,-99.99,,,0.00,weatherlink.com 1.10,2014-01-23 09:10:00,
2014-01-23 04:25:00,44.2,36.0,30.20,WNW,287,1.0,-999.0,74,-99.99,,,0.00,weatherlink.com 1.10,2014-01-23 09:25:00,
2014-01-23 04:40:00,43.8,37.0,30.21,WNW,289,0.0,-999.0,77,-99.99,,,0.00,weatherlink.com 1.10,2014-01-23 09:40:00,
2014-01-23 04:56:00,43.8,37.0,30.20,NW,325,1.0,-999.0,76,-99.99,,,0.00,weatherlink.com 1.10,2014-01-23 09:56:00,
2014-01-23 05:11:00,43.5,36.0,30.20,NW,309,2.0,-999.0,76,-99.99,,,0.00,weatherlink.com 1.10,2014-01-23 10:11:00,
2014-01-23 05:26:00,43.1,36.0,30.20,NNW,335,2.0,-999.0,77,-99.99,,,0.00,weatherlink.com 1.10,2014-01-23 10:26:00,
2014-01-23 05:41:00,43.2,36.0,30.20,NW,321,0.0,-999.0,77,-99.99,,,0.00,weatherlink.com 1.10,2014-01-23 10:41:00,
2014-01-23 05:56:00,43.0,37.0,30.21,WNW,289,2.0,-999.0,78,-99.99,,,0.00,weatherlink.com 1.10,2014-01-23 10:56:00,
2014-01-23 06:11:00,42.7,37.0,30.22,WNW,298,1.0,-999.0,79,-99.99,,,0.00,weatherlink.com 1.10,2014-01-23 11:11:00,
2014-01-23 06:26:00,42.8,36.0,30.22,NW,307,3.0,-999.0,78,-99.99,,,0.00,weatherlink.com 1.10,2014-01-23 11:26:00,
2014-01-23 06:41:00,42.8,36.0,30.23,NW,320,2.0,-999.0,78,-99.99,,,0.00,weatherlink.com 1.10,2014-01-23 11:41:00,
2014-01-23 06:56:00,42.7,36.0,30.22,WNW,298,3.0,-999.0,77,-99.99,,,0.00,weatherlink.com 1.10,2014-01-23 11:56:00,
2014-01-23 07:11:00,42.3,35.0,30.22,NW,317,1.0,-999.0,76,-99.99,,,0.00,weatherlink.com 1.10,2014-01-23 12:11:00,
2014-01-23 07:26:00,42.4,35.0,30.23,NNW,327,1.0,-999.0,76,-99.99,,,0.00,weatherlink.com 1.10,2014-01-23 12:26:00,
2014-01-23 07:41:00,44.2,37.0,30.24,WNW,301,0.0,-999.0,75,-99.99,,,0.00,weatherlink.com 1.10,2014-01-23 12:41:00,
2014-01-23 07:56:00,45.6,37.0,30.24,NW,314,1.0,-999.0,72,-99.99,,,0.00,weatherlink.com 1.10,2014-01-23 12:56:00,
2014-01-23 08:11:00,47.9,37.0,30.24,NNW,336,1.0,-999.0,67,-99.99,,,0.00,weatherlink.com 1.10,2014-01-23 13:11:00,
2014-01-23 08:26:00,49.6,37.0,30.25,WNW,302,2.0,-999.0,62,-99.99,,,0.00,weatherlink.com 1.10,2014-01-23 13:26:00,
2014-01-23 08:41:00,51.0,38.0,30.26,NNW,346,3.0,-999.0,62,-99.99,,,0.00,weatherlink.com 1.10,2014-01-23 13:41:00,
2014-01-23 08:56:00,53.4,39.0,30.27,WNW,296,3.0,-999.0,59,-99.99,,,0.00,weatherlink.com 1.10,2014-01-23 13:56:00,
2014-01-23 09:11:00,55.4,39.0,30.27,NW,315,4.0,-999.0,54,-99.99,,,0.00,weatherlink.com 1.10,2014-01-23 14:11:00,
2014-01-23 09:26:00,56.4,38.0,30.27,NW,305,1.0,-999.0,50,-99.99,,,0.00,weatherlink.com 1.10,2014-01-23 14:26:00,
2014-01-23 09:41:00,58.7,39.0,30.27,WNW,297,3.0,-999.0,48,-99.99,,,0.00,weatherlink.com 1.10,2014-01-23 14:41:00,
2014-01-23 09:56:00,59.9,43.0,30.28,North,5,5.0,-999.0,53,-99.99,,,0.00,weatherlink.com 1.10,2014-01-23 14:56:00,
2014-01-23 10:11:00,60.6,44.0,30.28,North,360,5.0,-999.0,55,-99.99,,,0.00,weatherlink.com 1.10,2014-01-23 15:11:00,
2014-01-23 10:26:00,61.9,46.0,30.28,WNW,284,6.0,-999.0,57,-99.99,,,0.00,weatherlink.com 1.10,2014-01-23 15:26:00,
2014-01-23 10:41:00,63.9,48.0,30.28,WNW,298,3.0,-999.0,57,-99.99,,,0.00,weatherlink.com 1.10,2014-01-23 15:41:00,
2014-01-23 10:56:00,65.3,49.0,30.28,NW,325,6.0,-999.0,55,-99.99,,,0.00,weatherlink.com 1.10,2014-01-23 15:56:00,
2014-01-23 11:11:00,65.6,49.0,30.27,North,5,2.0,-999.0,56,-99.99,,,0.00,weatherlink.com 1.10,2014-01-23 16:11:00,
2014-01-23 11:26:00,65.4,51.0,30.27,NNW,329,4.0,-999.0,59,-99.99,,,0.00,weatherlink.com 1.10,2014-01-23 16:26:00,
2014-01-23 11:41:00,64.7,52.0,30.27,NNE,15,4.0,-999.0,63,-99.99,,,0.00,weatherlink.com 1.10,2014-01-23 16:41:00,
2014-01-23 11:56:00,65.4,52.0,30.26,NNE,12,4.0,-999.0,62,-99.99,,,0.00,weatherlink.com 1.10,2014-01-23 16:56:00,
2014-01-23 12:12:00,67.9,52.0,30.25,West,265,3.0,-999.0,57,-99.99,,,0.00,weatherlink.com 1.10,2014-01-23 17:12:00,
2014-01-23 12:27:00,67.4,53.0,30.25,NNE,12,5.0,-999.0,61,-99.99,,,0.00,weatherlink.com 1.10,2014-01-23 17:27:00,
2014-01-23 12:42:00,67.9,54.0,30.23,NE,45,3.0,-999.0,61,-99.99,,,0.00,weatherlink.com 1.10,2014-01-23 17:42:00,
2014-01-23 12:57:00,67.6,54.0,30.23,NE,52,4.0,-999.0,63,-99.99,,,0.00,weatherlink.com 1.10,2014-01-23 17:57:00,
2014-01-23 13:12:00,68.2,55.0,30.22,North,355,2.0,-999.0,64,-99.99,,,0.00,weatherlink.com 1.10,2014-01-23 18:12:00,
2014-01-23 13:27:00,68.3,54.0,30.21,North,11,4.0,-999.0,61,-99.99,,,0.00,weatherlink.com 1.10,2014-01-23 18:27:00,
2014-01-23 13:42:00,67.8,55.0,30.21,NE,36,2.0,-999.0,63,-99.99,,,0.00,weatherlink.com 1.10,2014-01-23 18:42:00,
2014-01-23 13:57:00,67.9,55.0,30.21,ENE,71,7.0,-999.0,64,-99.99,,,0.00,weatherlink.com 1.10,2014-01-23 18:57:00,
2014-01-23 14:12:00,68.5,54.0,30.21,NE,52,4.0,-999.0,61,-99.99,,,0.00,weatherlink.com 1.10,2014-01-23 19:12:00,
2014-01-23 14:27:00,68.9,55.0,30.20,East,86,6.0,-999.0,61,-99.99,,,0.00,weatherlink.com 1.10,2014-01-23 19:27:00,
2014-01-23 14:42:00,68.9,55.0,30.20,NE,50,4.0,-999.0,61,-99.99,,,0.00,weatherlink.com 1.10,2014-01-23 19:42:00,
2014-01-23 15:12:00,67.7,55.0,30.20,NE,50,3.0,-999.0,63,-99.99,,,0.00,weatherlink.com 1.10,2014-01-23 20:12:00,
2014-01-23 15:27:00,68.4,56.0,30.20,ENE,57,5.0,-999.0,64,-99.99,,,0.00,weatherlink.com 1.10,2014-01-23 20:27:00,
2014-01-23 15:42:00,67.9,55.0,30.20,NNE,28,2.0,-999.0,63,-99.99,,,0.00,weatherlink.com 1.10,2014-01-23 20:42:00,
2014-01-23 15:57:00,68.2,55.0,30.21,NNE,28,3.0,-999.0,63,-99.99,,,0.00,weatherlink.com 1.10,2014-01-23 20:57:00,
2014-01-23 16:12:00,67.7,55.0,30.22,NE,38,3.0,-999.0,64,-99.99,,,0.00,weatherlink.com 1.10,2014-01-23 21:12:00,
2014-01-23 16:27:00,66.9,56.0,30.22,NE,51,3.0,-999.0,67,-99.99,,,0.00,weatherlink.com 1.10,2014-01-23 21:27:00,
2014-01-23 16:42:00,66.6,55.0,30.22,ENE,64,3.0,-999.0,67,-99.99,,,0.00,weatherlink.com 1.10,2014-01-23 21:42:00,
2014-01-23 16:57:00,66.4,55.0,30.22,NNE,25,3.0,-999.0,68,-99.99,,,0.00,weatherlink.com 1.10,2014-01-23 21:57:00,
2014-01-23 17:12:00,66.1,56.0,30.22,NE,49,4.0,-999.0,69,-99.99,,,0.00,weatherlink.com 1.10,2014-01-23 22:12:00,
2014-01-23 17:27:00,65.6,56.0,30.23,ENE,63,4.0,-999.0,70,-99.99,,,0.00,weatherlink.com 1.10,2014-01-23 22:27:00,
2014-01-23 17:42:00,65.0,56.0,30.23,ENE,57,4.0,-999.0,72,-99.99,,,0.00,weatherlink.com 1.10,2014-01-23 22:42:00,
2014-01-23 17:57:00,64.4,56.0,30.24,NE,34,2.0,-999.0,73,-99.99,,,0.00,weatherlink.com 1.10,2014-01-23 22:57:00,
2014-01-23 18:12:00,63.8,55.0,30.24,North,10,3.0,-999.0,74,-99.99,,,0.00,weatherlink.com 1.10,2014-01-23 23:12:00,
2014-01-23 18:27:00,63.1,55.0,30.25,North,5,2.0,-999.0,75,-99.99,,,0.00,weatherlink.com 1.10,2014-01-23 23:27:00,
2014-01-23 18:42:00,62.5,55.0,30.25,North,350,1.0,-999.0,76,-99.99,,,0.00,weatherlink.com 1.10,2014-01-23 23:42:00,
2014-01-23 18:57:00,61.9,55.0,30.25,NNW,331,4.0,-999.0,77,-99.99,,,0.00,weatherlink.com 1.10,2014-01-23 23:57:00,
2014-01-23 19:12:00,61.3,54.0,30.26,NNW,337,2.0,-999.0,78,-99.99,,,0.00,weatherlink.com 1.10,2014-01-24 00:12:00,
2014-01-23 19:27:00,60.7,54.0,30.27,NNW,348,1.0,-999.0,79,-99.99,,,0.00,weatherlink.com 1.10,2014-01-24 00:27:00,
2014-01-23 19:42:00,60.1,54.0,30.27,North,351,4.0,-999.0,79,-99.99,,,0.00,weatherlink.com 1.10,2014-01-24 00:42:00,
2014-01-23 19:57:00,59.8,53.0,30.27,NNW,342,2.0,-999.0,79,-99.99,,,0.00,weatherlink.com 1.10,2014-01-24 00:57:00,
2014-01-23 20:12:00,59.3,53.0,30.27,NNW,338,1.0,-999.0,80,-99.99,,,0.00,weatherlink.com 1.10,2014-01-24 01:12:00,
2014-01-23 20:27:00,58.9,53.0,30.28,NNW,344,0.0,-999.0,80,-99.99,,,0.00,weatherlink.com 1.10,2014-01-24 01:27:00,
2014-01-23 20:42:00,58.5,52.0,30.28,NNW,333,2.0,-999.0,80,-99.99,,,0.00,weatherlink.com 1.10,2014-01-24 01:42:00,
2014-01-23 20:57:00,58.4,53.0,30.28,NW,324,2.0,-999.0,81,-99.99,,,0.00,weatherlink.com 1.10,2014-01-24 01:57:00,
2014-01-23 21:12:00,58.5,52.0,30.29,NNW,329,2.0,-999.0,80,-99.99,,,0.00,weatherlink.com 1.10,2014-01-24 02:12:00,
2014-01-23 21:27:00,58.6,52.0,30.29,North,360,1.0,-999.0,80,-99.99,,,0.00,weatherlink.com 1.10,2014-01-24 02:27:00,
2014-01-23 21:42:00,58.5,52.0,30.29,NNW,348,1.0,-999.0,80,-99.99,,,0.00,weatherlink.com 1.10,2014-01-24 02:42:00,
2014-01-23 21:57:00,58.3,52.0,30.29,North,355,1.0,-999.0,80,-99.99,,,0.00,weatherlink.com 1.10,2014-01-24 02:57:00,
2014-01-23 22:12:00,58.1,52.0,30.28,NNW,331,2.0,-999.0,81,-99.99,,,0.00,weatherlink.com 1.10,2014-01-24 03:12:00,
2014-01-23 22:27:00,58.0,52.0,30.28,NNW,334,1.0,-999.0,81,-99.99,,,0.00,weatherlink.com 1.10,2014-01-24 03:27:00,
2014-01-23 22:42:00,58.0,53.0,30.29,NNW,348,2.0,-999.0,82,-99.99,,,0.00,weatherlink.com 1.10,2014-01-24 03:42:00,
2014-01-23 22:57:00,57.9,52.0,30.29,NNE,15,1.0,-999.0,82,-99.99,,,0.00,weatherlink.com 1.10,2014-01-24 03:57:00,
2014-01-23 23:12:00,57.7,52.0,30.29,NW,325,2.0,-999.0,82,-99.99,,,0.00,weatherlink.com 1.10,2014-01-24 04:12:00,
2014-01-23 23:27:00,57.7,52.0,30.29,NNW,342,3.0,-999.0,82,-99.99,,,0.00,weatherlink.com 1.10,2014-01-24 04:27:00,
2014-01-23 23:42:00,57.7,53.0,30.29,NNW,338,2.0,-999.0,83,-99.99,,,0.00,weatherlink.com 1.10,2014-01-24 04:42:00,
2014-01-23 23:57:00,57.8,53.0,30.29,NW,308,2.0,-999.0,83,-99.99,,,0.00,weatherlink.com 1.10,2014-01-24 04:57:00,